Location: LDNL
(36.4545°S, 141.6685°E)
Time: 05:07:56
(UTC+11:00)

A-11 Canister half - Pass Details

Date: 11 August 2022
Orbit: 1524 x 1684 km, 47.3° (Epoch: 05 October)

Event Time Altitude Azimuth Distance (km) Brightness Sun altitude
Rises 23:46:01 0° 238° (WSW) 4,706 11.9 -65.7°
Enters shadow 23:47:51 - 237° (WSW) 4,115 11.5 -65.9°
Reaches altitude 10° 23:49:03 10° 236° (SW) 3,732 - -66.0°
Maximum altitude 23:58:33 82° 148° (SSE) 1,591 - -66.9°
Drops below altitude 10° 00:08:18 10° 59° (ENE) 3,826 - -67.7°
Sets 00:11:27 0° 58° (ENE) 4,829 - -67.9°
